Location: Newark
(52.3500°N, 175.9667°E)
Time: 21:51:35
(UTC+00:00)

Transit 4A - Pass Details

Date: 28 April 2021
Orbit: 871 x 974 km, 66.8° (Epoch: 16 May)

Event Time Altitude Azimuth Distance (km) Brightness Sun altitude
Rises 14:15:54 0° 297° (WNW) 3,569 10.9 -18.3°
Reaches altitude 10° 14:19:11 10° 314° (NW) 2,606 10.4 -18.0°
Maximum altitude 14:23:33 20° 0° (N) 1,953 10.3 -17.6°
Drops below altitude 10° 14:27:51 10° 47° (NE) 2,560 11.4 -17.3°
Sets 14:31:03 0° 64° (ENE) 3,485 12.0 -17.0°
